Location: Killam
(52.7910°N, 111.8608°W)
Time: 17:54:11
(UTC+00:00)

Vanguard 2 - Visible Passes

Search period start: 18 February 2026 00:00
Search period end: 28 February 2026 00:00
Orbit: 553 x 2897 km, 32.9° (Epoch: 17 February)

Date Brightness Start Highest point End Pass type
(mag) Time Alt. Az. Time Alt. Az. Time Alt. Az.
24 Feb 10.3 11:38:40 11° S 11:39:14 11° S 11:41:13 10° SSE visible
25 Feb 10.2 11:49:47 13° S 11:50:52 13° S 11:53:41 10° SSE visible
26 Feb 10.1 12:00:52 13° SSW 12:02:28 14° S 12:05:42 10° SSE visible
27 Feb 10.6 10:11:01 10° SE 10:11:01 10° SE 10:11:12 10° SE visible
27 Feb 10.1 12:11:56 13° SSW 12:14:03 15° S 12:17:28 10° SSE visible
